Location: Casa Rossa
(45.2389°N, 12.2056°E)
Time: 22:31:19
(UTC+00:00)

Cosmos 540 Rocket - Pass Details

Date: 14 July 2020
Orbit: 740 x 754 km, 74.1° (Epoch: 14 August)

Event Time Altitude Azimuth Distance (km) Brightness Sun altitude
Rises 02:51:03 0° 338° (NNW) 3,198 7.0 -7.4°
Reaches altitude 10° 02:53:24 10° 337° (NNW) 2,272 6.2 -7.0°
Maximum altitude 02:58:34 83° 250° (WSW) 761 3.5 -6.3°
Drops below altitude 10° 03:03:42 10° 164° (SSE) 2,265 5.7 -5.6°
Sets 03:06:03 0° 163° (SSE) 3,186 6.5 -5.3°
